Tillbaka till svenska Fidonet
English   Information   Debug  
FILM   0/18
FNEWS_PUBLISH   4881
FN_SYSOP   42085
FN_SYSOP_OLD1   71952
FTP_FIDO   0/2
FTSC_PUBLIC   0/13950
FUNNY   0/4886
GENEALOGY.EUR   0/71
GET_INFO   105
GOLDED   0/408
HAM   1924/16617
HOLYSMOKE   0/6791
HOT_SITES   0/1
HTMLEDIT   0/71
HUB203   466
HUB_100   264
HUB_400   39
HUMOR   0/29
IC   2281/2851
INTERNET   0/424
INTERUSER   0/3
IP_CONNECT   719
JAMNNTPD   0/233
JAMTLAND   0/47
KATTY_KORNER   0/41
LAN   0/16
LINUX-USER   0/19
LINUXHELP   0/1155
LINUX   0/22287
LINUX_BBS   0/957
mail   18.68
mail_fore_ok   249
MENSA   0/341
MODERATOR   0/102
MONTE   0/992
MOSCOW_OKLAHOMA   0/1245
MUFFIN   0/783
MUSIC   0/321
N203_STAT   938
N203_SYSCHAT   313
NET203   321
NET204   69
NET_DEV   0/10
NORD.ADMIN   0/101
NORD.CHAT   0/2572
NORD.FIDONET   189
NORD.HARDWARE   0/28
NORD.KULTUR   0/114
NORD.PROG   0/32
NORD.SOFTWARE   0/88
NORD.TEKNIK   0/58
NORD   0/453
OCCULT_CHAT   0/93
OS2BBS   0/787
OS2DOSBBS   0/580
OS2HW   0/42
OS2INET   0/37
OS2LAN   0/134
OS2PROG   0/36
OS2REXX   0/113
OS2USER-L   207
OS2   0/4829
OSDEBATE   16052/18996
PASCAL   0/490
PERL   0/457
PHP   0/45
POINTS   0/405
POLITICS   0/29554
POL_INC   0/14731
PSION   103
R20_ADMIN   1133
R20_AMATORRADIO   0/2
R20_BEST_OF_FIDONET   16
R20_CHAT   0/896
R20_DEPP   0/3
R20_DEV   400
R20_ECHO2   1789
R20_ECHOPRES   0/35
R20_ESTAT   0/719
R20_FIDONETPROG...
...RAM.MYPOINT
  0/2
R20_FIDONETPROGRAM   0/22
R20_FIDONET   0/248
R20_FILEFIND   0/24
R20_FILEFOUND   0/22
R20_HIFI   0/3
R20_INFO2   3681
R20_INTERNET   0/12940
R20_INTRESSE   0/60
R20_INTR_KOM   0/99
R20_KANDIDAT.CHAT   42
R20_KANDIDAT   28
R20_KOM_DEV   112
R20_KONTROLL   0/13360
R20_KORSET   0/18
R20_LOKALTRAFIK   0/24
R20_MODERATOR   0/1852
R20_NC   76
R20_NET200   245
R20_NETWORK.OTH...
...ERNETS
  0/13
R20_OPERATIVSYS...
...TEM.LINUX
  0/44
R20_PROGRAMVAROR   0/1
R20_REC2NEC   534
R20_SFOSM   0/341
R20_SF   0/108
R20_SPRAK.ENGLISH   0/1
R20_SQUISH   107
R20_TEST   2
R20_WORST_OF_FIDONET   20
RAR   0/9
RA_MULTI   106
RA_UTIL   0/162
REGCON.EUR   0/2067
REGCON   0/13
SCIENCE   0/1206
SF   0/239
SHAREWARE_SUPPORT   0/5146
SHAREWRE   0/14
SIMPSONS   0/169
STATS_OLD1   0/2539.065
STATS_OLD2   0/2530
STATS_OLD3   0/2395.095
STATS_OLD4   0/1692.25
SURVIVOR   0/495
SYSOPS_CORNER   0/3
SYSOP   0/84
TAGLINES   0/112
TEAMOS2   0/4530
TECH   0/2617
TEST.444   0/105
TRAPDOOR   0/19
TREK   0/755
TUB   0/290
UFO   0/40
UNIX   0/1316
USA_EURLINK   0/102
USR_MODEMS   0/1
VATICAN   0/2740
VIETNAM_VETS   0/14
VIRUS   0/378
VIRUS_INFO   0/201
VISUAL_BASIC   0/473
WHITEHOUSE   0/5187
WIN2000   0/101
WIN32   0/30
WIN95   0/4291
WIN95_OLD1   0/70272
WINDOWS   0/1517
WWB_SYSOP   0/419
WWB_TECH   0/810
ZCC-PUBLIC   0/1
ZEC   4

 
4DOS   0/134
ABORTION   0/7
ALASKA_CHAT   0/506
ALLFIX_FILE   0/1313
ALLFIX_FILE_OLD1   0/7997
ALT_DOS   0/152
AMATEUR_RADIO   0/1039
AMIGASALE   0/14
AMIGA   0/331
AMIGA_INT   0/1
AMIGA_PROG   0/20
AMIGA_SYSOP   0/26
ANIME   0/15
ARGUS   0/924
ASCII_ART   0/340
ASIAN_LINK   0/651
ASTRONOMY   0/417
AUDIO   0/92
AUTOMOBILE_RACING   0/105
BABYLON5   0/17862
BAG   135
BATPOWER   0/361
BBBS.ENGLISH   0/382
BBSLAW   0/109
BBS_ADS   0/5290
BBS_INTERNET   0/507
BIBLE   0/3563
BINKD   0/1119
BINKLEY   0/215
BLUEWAVE   0/2173
CABLE_MODEMS   0/25
CBM   0/46
CDRECORD   0/66
CDROM   0/20
CLASSIC_COMPUTER   0/378
COMICS   0/15
CONSPRCY   0/899
COOKING   41026
COOKING_OLD1   0/24719
COOKING_OLD2   0/40862
COOKING_OLD3   0/37489
COOKING_OLD4   0/35496
COOKING_OLD5   9370
C_ECHO   0/189
C_PLUSPLUS   0/31
DIRTY_DOZEN   0/201
DOORGAMES   0/2253
DOS_INTERNET   0/196
duplikat   6102
ECHOLIST   0/18295
EC_SUPPORT   197/318
ELECTRONICS   0/359
ELEKTRONIK.GER   1534
ENET.LINGUISTIC   0/13
ENET.POLITICS   0/4
ENET.SOFT   0/11701
ENET.SYSOP   34256
ENET.TALKS   0/32
ENGLISH_TUTOR   0/2000
EVOLUTION   0/1335
FDECHO   0/217
FDN_ANNOUNCE   0/7068
FIDONEWS   24978
FIDONEWS_OLD1   0/49742
FIDONEWS_OLD2   0/35949
FIDONEWS_OLD3   0/30874
FIDONEWS_OLD4   0/37224
FIDO_SYSOP   12920
FIDO_UTIL   0/180
FILEFIND   0/209
FILEGATE   0/212
Möte HAM, 16617 texter
 lista första sista föregående nästa
Text 4687, 937 rader
Skriven 2011-10-20 22:00:55 av Amsat List (1:323/120.0)
Ärende: [keps] orb11293.amsa
============================
[keps] orb11293.amsa

Sender: keps-bounces@amsat.org
Return-Path: <keps-bounces@amsat.org>
X-Rcpt: craig.healy@chowda.com
X-UIDL: 1319161393.307

SB KEPS @ AMSAT  $ORB11293.O
Orbital Elements  11293.OSCAR

HR AMSAT ORBITAL ELEMENTS FOR OSCAR SATELLITES
FROM WA5QGD FORT WORTH,TX October 20, 2011
Send Subscribe/unsubscribe to KEPS at http://www.amsat.org/mailman/listinfo/kep
BID: ORB11293.O
TO ALL RADIO AMATEURS BT

Satellite: AO-07
Catalog number: 07530
Epoch time:      11293.61105342
Element set:     209
Inclination:      101.3970 deg
RA of node:       295.2193 deg
Eccentricity:    0.0012226
Arg of perigee:   033.1891 deg
Mean anomaly:     326.9941 deg
Mean motion:   12.53584769 rev/day
Decay rate:       -2.7e-07 rev/day^2
Epoch rev:           68990
Checksum:              298

Satellite: FO-29
Catalog number: 24278
Epoch time:      11293.40202742
Element set:     688
Inclination:      098.5658 deg
RA of node:       060.7687 deg
Eccentricity:    0.0349873
Arg of perigee:   292.8986 deg
Mean anomaly:     063.5579 deg
Mean motion:   13.52966400 rev/day
Decay rate:        3.9e-07 rev/day^2
Epoch rev:           74939
Checksum:              372

Satellite: SO-33
Catalog number: 25509
Epoch time:      11292.28413026
Element set:    0080
Inclination:      031.4355 deg
RA of node:       262.4046 deg
Eccentricity:    0.0354001
Arg of perigee:   246.9545 deg
Mean anomaly:     109.3368 deg
Mean motion:   14.28468305 rev/day
Decay rate:       7.77e-06 rev/day^2
Epoch rev:           67803
Checksum:              295

Satellite: RS-22
Catalog number: 27939
Epoch time:      11293.73977395
Element set:     735
Inclination:      097.8305 deg
RA of node:       141.6448 deg
Eccentricity:    0.0012782
Arg of perigee:   311.4181 deg
Mean anomaly:     048.5943 deg
Mean motion:   14.63691445 rev/day
Decay rate:       9.30e-06 rev/day^2
Epoch rev:           43070
Checksum:              326

Satellite: VO-52
Catalog number: 28650
Epoch time:      11292.72010303
Element set:    0929
Inclination:      097.6290 deg
RA of node:       330.1987 deg
Eccentricity:    0.0027982
Arg of perigee:   112.5867 deg
Mean anomaly:     247.8315 deg
Mean motion:   14.82270669 rev/day
Decay rate:      1.462e-05 rev/day^2
Epoch rev:           34919
Checksum:              324

Satellite: SO-67
Catalog number: 35870
Epoch time:      11293.74853459
Element set:     331
Inclination:      097.2671 deg
RA of node:       332.8620 deg
Eccentricity:    0.0001440
Arg of perigee:   349.2040 deg
Mean anomaly:     147.4461 deg
Mean motion:   15.21444405 rev/day
Decay rate:      5.891e-05 rev/day^2
Epoch rev:           11602
Checksum:              290

Satellite: HO-68
Catalog number: 36122
Epoch time:      11293.72757007
Element set:     848
Inclination:      100.4005 deg
RA of node:       352.5540 deg
Eccentricity:    0.0007275
Arg of perigee:   300.8668 deg
Mean anomaly:     059.1739 deg
Mean motion:   13.16289106 rev/day
Decay rate:       -4.4e-07 rev/day^2
Epoch rev:            8875
Checksum:              304

/EX
SB KEPS @ AMSAT  $ORB11293.D
Orbital Elements  11293.MICROS

HR AMSAT ORBITAL ELEMENTS FOR THE MICROSATS
FROM WA5QGD FORT WORTH,TX October 20, 2011
Send Subscribe/unsubscribe to KEPS at http://www.amsat.org/mailman/listinfo/kep
BID: ORB11293.D
TO ALL RADIO AMATEURS BT

Satellite: UO-11
Catalog number: 14781
Epoch time:      11293.34834311
Element set:     684
Inclination:      097.9893 deg
RA of node:       349.5644 deg
Eccentricity:    0.0010113
Arg of perigee:   092.0896 deg
Mean anomaly:     268.1472 deg
Mean motion:   14.80089468 rev/day
Decay rate:      1.095e-05 rev/day^2
Epoch rev:           48430
Checksum:              325

Satellite: AO-16
Catalog number: 20439
Epoch time:      11293.86820936
Element set:     307
Inclination:      098.3986 deg
RA of node:       239.3691 deg
Eccentricity:    0.0011030
Arg of perigee:   146.2646 deg
Mean anomaly:     213.9240 deg
Mean motion:   14.31954608 rev/day
Decay rate:       2.37e-06 rev/day^2
Epoch rev:           13560
Checksum:              302

Satellite: LO-19
Catalog number: 20442
Epoch time:      11292.88012120
Element set:    0242
Inclination:      098.3632 deg
RA of node:       242.2932 deg
Eccentricity:    0.0012519
Arg of perigee:   143.5408 deg
Mean anomaly:     216.6630 deg
Mean motion:   14.32177773 rev/day
Decay rate:       3.45e-06 rev/day^2
Epoch rev:           13564
Checksum:              272

Satellite: AO-27
Catalog number: 22825
Epoch time:      11293.80276341
Element set:     941
Inclination:      098.5437 deg
RA of node:       235.7378 deg
Eccentricity:    0.0007604
Arg of perigee:   266.3069 deg
Mean anomaly:     093.7270 deg
Mean motion:   14.29377010 rev/day
Decay rate:       2.17e-06 rev/day^2
Epoch rev:           94213
Checksum:              310

Satellite: IO-26
Catalog number: 22826
Epoch time:      11293.56911924
Element set:     686
Inclination:      098.5377 deg
RA of node:       235.9441 deg
Eccentricity:    0.0008006
Arg of perigee:   261.7886 deg
Mean anomaly:     098.2389 deg
Mean motion:   14.29641829 rev/day
Decay rate:       2.01e-06 rev/day^2
Epoch rev:           94222
Checksum:              337

Satellite: GO-32
Catalog number: 25397
Epoch time:      11293.82574986
Element set:     608
Inclination:      098.3396 deg
RA of node:       279.7412 deg
Eccentricity:    0.0000276
Arg of perigee:   261.1866 deg
Mean anomaly:     098.9267 deg
Mean motion:   14.23226082 rev/day
Decay rate:        5.1e-07 rev/day^2
Epoch rev:           68983
Checksum:              347

